Location: Novokuznetsk
(53.7500°N, 87.1000°E)
Time: 04:47:53
(UTC+06:00)

ISS - Pass Details

Date: 20 July 2018
Orbit: 402 x 408 km, 51.6° (Epoch: 16 July)

Event Time Altitude Azimuth Distance (km) Brightness Sun altitude
Rises 01:36:37 0° 273° (W) 2,329 -0.1 -13.6°
Reaches altitude 10° 01:38:44 10° 268° (W) 1,468 -1.2 -13.5°
Maximum altitude 01:41:56 51° 191° (SSW) 520 -3.7 -13.3°
Drops below altitude 10° 01:45:09 10° 115° (ESE) 1,468 -1.0 -13.2°
Sets 01:47:15 0° 110° (ESE) 2,328 0.1 -13.1°
